Home   Weather   Freiberg   Past weeks

Flag for Germany Past Weather in Freiberg, Saxony, Germany — Yesterday and Last 2 Weeks

Now
66 °F

Broken clouds.


Feels Like: 66 °F
Forecast: 51 / 67 °F
Wind: 2 mph from North

Location: Dresden-Klotzsche

Current Time: Sep 30, 2016 at 12:14:43 PM

Latest Report: Sep 30, 2016 at 11:20 AM


Visibility: N/A

Pressure: 29.98 "Hg

Humidity: 68%

Dew Point: 55 °F

Location of FreibergLocation

Past Weather in Freiberg — Graph

°F

Freiberg Temperature Yesterday

Maximum temperature yesterday: 79 °F (at 3:20 PM)
Minimum temperature yesterday: 61 °F (at 3:20 AM)
Average temperature yesterday: 68 °F

High & Low Weather Summary for the Past Weeks

 TemperatureHumidityPressure
High79 °F (Sep 15, 3:20 PM)100% (Sep 17, 1:50 AM)30.33 "Hg (Sep 17, 1:50 AM)
Low43 °F (Sep 22, 5:20 AM)29% (Sep 29, 12:50 PM)29.83 "Hg (Sep 17, 3:50 AM)
Average59 °F75%30.09 "Hg
* Reported Sep 15 10:20 AM — Sep 30 10:50 AM, Freiberg, Weather by CustomWeather, © 2016

Note: Actual official high and low records may vary slightly from our data, if they occured in-between our weather recording intervals... More about our weather records

Advertising

Freiberg Weather History for the Previous 24 Hours

Scroll right to see more
 ConditionsComfort  
Time TempWeatherWind HumidityBarometerVisibility
10:50 AM
Fri, Sep 30
64 °FBroken clouds.2 mph68%29.98 "HgN/A
10:20 AM63 °FMild.1 mph77%29.98 "HgN/A
9:50 AM61 °FSunny.1 mph77%29.98 "Hg10 mi
9:20 AM61 °FSunny.1 mph72%29.98 "Hg10 mi
8:50 AM61 °FBroken clouds.No wind72%29.98 "HgN/A
8:20 AM59 °FBroken clouds.3 mph82%29.95 "HgN/A
7:50 AM59 °FPartly sunny.6 mph82%29.98 "HgN/A
7:20 AM59 °FBroken clouds.6 mph82%29.95 "HgN/A
6:50 AM61 °FPartly cloudy.6 mph77%29.95 "HgN/A
6:20 AM63 °FPartly cloudy.7 mph73%29.92 "HgN/A
5:50 AM61 °FPassing clouds.7 mph72%29.92 "HgN/A
5:20 AM63 °FPassing clouds.7 mph68%29.92 "HgN/A
4:50 AM63 °FPassing clouds.7 mph68%29.92 "HgN/A
4:20 AM63 °FClear.7 mph68%29.92 "Hg10 mi
3:50 AM64 °FPassing clouds.6 mph64%29.92 "HgN/A
3:20 AM64 °FPassing clouds.7 mph64%29.92 "HgN/A
2:50 AM66 °FPassing clouds.6 mph60%29.92 "HgN/A
2:20 AM66 °FPassing clouds.9 mph60%29.92 "HgN/A
1:50 AM66 °FPassing clouds.7 mph60%29.92 "HgN/A
1:20 AM68 °FPassing clouds.9 mph53%29.92 "HgN/A
12:50 AM66 °FPassing clouds.7 mph60%29.92 "HgN/A
12:20 AM66 °FPassing clouds.8 mph60%29.92 "HgN/A
11:50 PM
Thu, Sep 29
66 °FClear.7 mph60%29.92 "Hg10 mi
11:20 PM66 °FClear.7 mph60%29.92 "Hg10 mi
10:50 PM66 °FClear.9 mph60%29.92 "Hg10 mi
10:20 PM66 °FClear.8 mph60%29.95 "Hg10 mi
9:50 PM66 °FClear.7 mph60%29.95 "Hg10 mi
9:20 PM66 °FClear.6 mph60%29.95 "Hg10 mi
8:50 PM68 °FClear.7 mph56%29.92 "Hg10 mi
8:20 PM68 °FClear.10 mph56%29.92 "Hg10 mi
7:50 PM70 °FClear.10 mph50%29.92 "Hg10 mi
7:20 PM72 °FClear.12 mph47%29.92 "Hg10 mi
6:50 PM72 °FClear.8 mph50%29.95 "Hg10 mi
6:20 PM73 °FSunny.13 mph47%29.95 "Hg10 mi
5:50 PM75 °FSunny.10 mph41%29.95 "Hg10 mi
5:20 PM77 °FPassing clouds.9 mph34%29.95 "HgN/A
4:50 PM77 °FPassing clouds.12 mph34%29.95 "HgN/A
4:20 PM77 °FPassing clouds.12 mph34%29.98 "HgN/A
3:50 PM79 °FPassing clouds.10 mph30%29.98 "HgN/A
3:20 PM79 °FPassing clouds.10 mph32%29.98 "HgN/A
2:50 PM77 °FPassing clouds.9 mph34%30.01 "HgN/A
2:20 PM77 °FPassing clouds.12 mph32%30.04 "HgN/A
1:50 PM75 °FPassing clouds.12 mph29%30.04 "HgN/A
1:20 PM73 °FPassing clouds.10 mph31%30.07 "HgN/A
12:50 PM73 °FPassing clouds.12 mph29%30.07 "HgN/A
12:20 PM73 °FPassing clouds.12 mph31%30.09 "HgN/A
Weather by CustomWeather, © 2016

See weather overviewHow to use our weather pages